Погода в Киевке

Россия / Ставропольский край     46°04′37″N   42°55′21″E
темп.,
°C
ветер,
м/с
пор.,
м/с
влажн.,
%
обл.,
%
осадки,
мм/ч
давл.,
гПа
погр.,
м
18 августа, чт
чт1800:00+28сз344388 0.0 100778
03:00+26ссз35466 0.0 100886
06:00+25ссз495886 0.0 1008279
09:00+30сз4443100 0.1 1008754
12:00+31сз6544100 1.0 1008932
15:00+34ссз55350 1.0 10071483
18:00+30сз81048100 0.0 1007500
21:00+23зсз71176100 1.6 1009505
19 августа, пт
пт1900:00+23с3776100 1.8 1009335
03:00+23ююз1274100 3.8 100882
06:00+23сз1277100 0.6 100995
09:00+27ссв455599 0.8 1009672
12:00+29ссв4546100 0.3 1009978
15:00+33св6629100 0.3 10081705
18:00+31с2332100 0.3 1007101
21:00+28в10173599 0.6 1008737
20 августа, сб
сб2000:00+25вюв8164497 1.5 1010640
03:00+24вюв61454100 1.6 1011548
06:00+25вюв71451100 0.0 1011756
09:00+28вюв101347100 0.4 10121386
12:00+32вюв121627100 0.1 10122285
15:00+32вюв121528100 0.1 10121751
18:00+29вюв101631100 0.0 10131386
21:00+25вюв101732100 0.0 1014967
21 августа, вс
вс2100:00+23в9164699 0.0 1014863
03:00+22в9174277 0.0 1014756
06:00+23в91646100 0.0 1013980
09:00+27вюв121834100 0.0 10131436
12:00+31вюв131719100 0.0 10121968
15:00+32вюв121517100 0.0 10112115
18:00+28вюв11152582 0.0 10121597
21:00+24в10164061 0.0 1013993
22 августа, пн
пн2200:00+22в10184578 0.0 1012931
03:00+22в10185018 0.0 10111032
06:00+23вюв1019485 0.0 10121133
09:00+29вюв1319345 0.0 10121781
12:00+32вюв1417220 0.0 10112304
15:00+33вюв1316200 0.0 10112327
18:00+29вюв1216250 0.0 10131791
21:00+25вюв1017320 0.0 10141073